EW2457 Weather Reports


time (UTC)temp
F
wind
direction
speed
knots
gust
knots
rain 1hr
in
rain 24hr
in
rain mn
in
humidity
%
barometer
mb
20260503211500 63 305 1.7 4.3 0.00 0.00 0.00 66 1011.7
20260503210104 63 273 2.6 5.2 0.00 0.00 0.00 67 1011.7
20260503204600 62 41 0.9 6.1 0.00 0.00 0.00 69 1011.7
20260503203100 62 270 1.7 4.3 0.00 0.00 0.00 69 1011.8
20260503201558 61 13 0.9 6.1 0.00 0.00 0.00 69 1011.8
20260503200059 61 145 0.9 3.5 0.00 0.00 0.00 69 1011.9
20260503194600 61 210 0.9 6.1 0.00 0.00 0.00 69 1011.9
20260503194526 61 79 0.9 6.1 0.00 0.00 0.00 69 1011.9
20260503193056 61 285 1.7 6.1 0.00 0.00 0.00 68 1012.1
20260503191555 63 228 1.7 5.2 0.00 0.00 0.00 66 1012.0
20260503190054 63 170 0.9 3.5 0.00 0.00 0.00 66 1012.0
20260503184551 62 141 1.7 5.2 0.00 0.00 0.00 67 1012.0
20260503183050 61 45 0.9 2.6 0.00 0.00 0.00 70 1011.9
20260503181546 60 30 1.7 4.3 0.00 0.00 0.00 70 1012.0
20260503180057 61 149 0.9 3.5 0.00 0.00 0.00 70 1011.8
20260503174543 60 8 0.9 4.3 0.00 0.00 0.00 71 1011.9
20260503173040 59 342 0.0 2.6 0.00 0.00 0.00 73 1011.9
20260503171545 58 349 0.9 3.5 0.00 0.00 0.00 73 1011.8
20260503081551 54 70 0.9 2.6 0.00 0.00 0.00 78 1010.7
20260503071604 54 67 0.0 1.7 0.00 0.00 0.00 78 1010.7
20260503054555 54 163 0.0 2.6 0.00 0.00 0.00 78 1010.9
20260503053042 54 195 0.9 2.6 0.00 0.00 0.00 78 1011.1
20260503051542 54 12 0.9 3.5 0.00 0.00 0.00 78 1011.1
20260503050042 54 125 0.9 2.6 0.00 0.00 0.00 78 1011.1
20260503044541 54 239 0.0 3.5 0.00 0.00 0.00 78 1011.1
20260503043040 54 355 0.9 2.6 0.00 0.00 0.00 78 1010.9
20260503041543 54 206 0.9 4.3 0.00 0.00 0.00 78 1010.9
20260503040050 54 107 0.0 1.7 0.00 0.00 0.00 77 1010.8
20260503034538 54 205 0.0 2.6 0.00 0.00 0.00 77 1010.8
20260503033040 54 267 0.9 3.5 0.00 0.00 0.00 77 1010.6
20260503031541 54 18 0.9 3.5 0.00 0.00 0.00 77 1010.3
20260503030046 55 252 0.0 1.7 0.00 0.00 0.00 77 1010.2
20260503024535 55 58 0.0 3.5 0.00 0.00 0.00 77 1010.2
20260503023035 55 350 0.9 3.5 0.00 0.00 0.00 77 1010.1
20260503021534 55 118 0.0 2.6 0.00 0.00 0.00 77 1010.1
20260503020035 55 352 0.0 3.5 0.00 0.00 0.00 76 1010.3
20260503014531 56 195 0.9 6.1 0.00 0.00 0.00 76 1010.3
20260503013036 56 108 0.9 3.5 0.00 0.00 0.00 75 1010.4
20260503011530 57 60 0.9 3.5 0.00 0.00 0.00 74 1010.5
20260503010032 57 6 0.9 2.6 0.00 0.00 0.00 74 1010.4
20260503004527 58 354 0.9 2.6 0.00 0.00 0.00 73 1010.5
20260503003026 58 43 0.9 4.3 0.00 0.00 0.00 73 1010.6
20260503001524 58 245 0.9 2.6 0.00 0.00 0.00 72 1010.7
20260503000023 59 30 0.0 3.5 0.00 0.00 0.00 72 1010.7
20260502234528 59 23 0.9 3.5 0.00 0.00 0.00 71 1010.8
20260502233019 58 70 0.9 5.2 0.00 0.00 0.00 71 1011.0
20260502231518 59 295 1.7 5.2 0.00 0.00 0.00 71 1011.2
20260502230023 60 34 1.7 3.5 0.00 0.00 0.00 71 1011.3
20260502224516 60 70 0.9 3.5 0.00 0.00 0.00 71 1011.6
20260502223017 59 47 0.9 4.3 0.00 0.00 0.00 73 1011.8
20260502221514 59 85 1.7 4.3 0.00 0.00 0.00 72 1012.0
20260502220013 58 312 1.7 4.3 0.00 0.00 0.00 72 1012.2
20260502214512 58 342 1.7 5.2 0.00 0.00 0.00 72 1012.3
20260502213012 58 239 2.6 9.6 0.00 0.00 0.00 72 1012.2